(309592) = 2002 XE34 = 2006 SQ44 = 2008 AX135

Discovered at Catalina on 2008-01-11 by CSS.

Orbit

Orbit type: Main Belt

Note: WebGL enabled browser required.

epoch2022-01-21.0
epoch JD2459600.5
perihelion date2020-11-04.71414
perihelion JD2459158.21414
argument of perihelion (°)348.93011
ascending node (°)73.56915
inclination (°)11.67713
eccentricity0.1799877
perihelion distance (AU)2.2370846
Tisserand w.r.t. Jupiter3.3
ΔV w.r.t. Earth (km/sec)10.1
semimajor axis (AU)2.7281111
mean anomaly (°)96.74172
mean daily motion (°/day)0.21873120
aphelion distance (AU)3.219
period (years)4.51
P-vector [x]0.45794860
P-vector [y]0.83030047
P-vector [z]0.31762275
Q-vector [x]-0.86752307
Q-vector [y]0.33937485
Q-vector [z]0.36363227
absolute magnitude16.24
phase slope0.15
uncertainty0
referenceMPO 697331
observations used463
oppositions11
arc length (days)7114
first opposition used2002
last opposition used2022
residual rms (arc-secs)0.80
perturbers coarse indicatorM-v
perturbers precise indicator003Ek
first observation date used2002-11-06.0
last observation date used2022-04-29.0
computer namePan
JD of orbit computation2456406.155141
perihelion JD uncertainty (days)1.0291E-04
argument of perihelion uncertainty (°)4.5156E-05
ascending node uncertainty (°)3.4665E-05
inclination uncertainty (°)1.2579E-05
eccentricity uncertainty 1.4567E-07
perihelion distance uncertainty (AU)3.9666E-07
Minimum Orbit Intersection Distances (in AU)
for orbit epoch: 2459600.5, reference: E2022-B04
Mercury1.92794
Venus1.51584
Earth1.25171
Mars0.70573
Jupiter2.10864
Saturn6.70315
Uranus15.4904
Neptune27.2771

Observations

475 total observations over interval: 2002 11 06.34256 – 2022 05 26.265734
These data are available for download (format description).

Date (UT) J2000 RA J2000 Dec Magn Location Ref
2002 11 06.34256 05 28 55.70 +20 49 05.7 20.2   704 – Lincoln Laboratory ETS, New Mexico MPS 327450
2002 11 06.37617 05 28 54.72 +20 49 16.2 20.2   704 – Lincoln Laboratory ETS, New Mexico MPS 327450
2002 11 06.39297 05 28 54.35 +20 49 22.1 20.0   704 – Lincoln Laboratory ETS, New Mexico MPS 327450
2002 11 14.35687 05 24 52.14 +21 31 55.0 19.6   704 – Lincoln Laboratory ETS, New Mexico MPS 327450
2002 11 14.39222 05 24 50.75 +21 32 07.4 19.6   704 – Lincoln Laboratory ETS, New Mexico MPS 327450
2002 11 14.41002 05 24 49.99 +21 32 12.5 19.8   704 – Lincoln Laboratory ETS, New Mexico MPS 327450
2002 12 05.28903 05 05 57.98 +23 29 25.3 19.4   704 – Lincoln Laboratory ETS, New Mexico MPS 68407
2002 12 05.30451 05 05 56.94 +23 29 29.9 19.5   704 – Lincoln Laboratory ETS, New Mexico MPS 68407
2002 12 05.31982 05 05 55.83 +23 29 35.0 19.8   704 – Lincoln Laboratory ETS, New Mexico MPS 68407
2002 12 05.33521 05 05 54.89 +23 29 38.4 19.5   704 – Lincoln Laboratory ETS, New Mexico MPS 68407
2002 12 05.34229 05 05 54.42 +23 29 42.1 18.9   644 – Palomar Mountain/NEAT MPS 70102
2002 12 05.35053 05 05 53.83 +23 29 44.4 19.4   704 – Lincoln Laboratory ETS, New Mexico MPS 68407
2002 12 05.41291 05 05 49.67 +23 30 05.0 18.7   644 – Palomar Mountain/NEAT MPS 70102
2002 12 05.48176 05 05 45.05 +23 30 27.3 21.0   644 – Palomar Mountain/NEAT MPS 70102
2002 12 08.30807 05 02 40.74 +23 45 41.2 18.8 V 333 – Desert Eagle Observatory MPS 70102
2002 12 08.32363 05 02 39.71 +23 45 51.8 17.3 V 333 – Desert Eagle Observatory MPS 70102
2002 12 09.23897 05 01 39.82 +23 50 37.8 19.7 V 333 – Desert Eagle Observatory MPS 68407
2002 12 09.25625 05 01 38.65 +23 50 44.6 18.6 V 333 – Desert Eagle Observatory MPS 68407
2002 12 09.27343 05 01 37.44 +23 50 49.0 20.1 V 333 – Desert Eagle Observatory MPS 68407
2002 12 10.21483 05 00 36.05 +23 55 44.9 19.9   704 – Lincoln Laboratory ETS, New Mexico MPS 68407
2002 12 10.22858 05 00 34.94 +23 55 49.9 18.6   704 – Lincoln Laboratory ETS, New Mexico MPS 68407
2002 12 10.23034 05 00 34.87 +23 55 50.6 19.5   704 – Lincoln Laboratory ETS, New Mexico MPS 68407
2002 12 10.24404 05 00 33.93 +23 55 54.8 18.6   704 – Lincoln Laboratory ETS, New Mexico MPS 68407
2002 12 10.24564 05 00 33.82 +23 55 55.7 19.6   704 – Lincoln Laboratory ETS, New Mexico MPS 68407
2002 12 10.25935 05 00 32.88 +23 56 00.0 18.7   704 – Lincoln Laboratory ETS, New Mexico MPS 68407
2002 12 10.26096 05 00 32.81 +23 56 00.7 19.7   704 – Lincoln Laboratory ETS, New Mexico MPS 68407
2002 12 10.27470 05 00 31.81 +23 56 05.0 18.8   704 – Lincoln Laboratory ETS, New Mexico MPS 68407
2002 12 10.27631 05 00 31.72 +23 56 05.9 19.2   704 – Lincoln Laboratory ETS, New Mexico MPS 68407
2002 12 10.29004 05 00 30.81 +23 56 09.7 18.8   704 – Lincoln Laboratory ETS, New Mexico MPS 68407
2002 12 11.21628 04 59 30.33 +24 00 58.7 19.1   704 – Lincoln Laboratory ETS, New Mexico MPS 68407
2002 12 11.23174 04 59 29.28 +24 01 03.5 19.2   704 – Lincoln Laboratory ETS, New Mexico MPS 68407
2002 12 11.24732 04 59 28.21 +24 01 08.7 19.6   704 – Lincoln Laboratory ETS, New Mexico MPS 68407
2002 12 11.26274 04 59 27.17 +24 01 13.7 19.3   704 – Lincoln Laboratory ETS, New Mexico MPS 68407
2002 12 11.27823 04 59 26.12 +24 01 18.7 19.2   704 – Lincoln Laboratory ETS, New Mexico MPS 68407
2006 09 17.35878 00 22 35.74 -18 22 49.9 18.7 R 699 – Lowell Observatory-LONEOS MPS 179632
2006 09 17.37704 00 22 34.79 -18 22 58.1   699 – Lowell Observatory-LONEOS MPS 179632
2006 09 17.39532 00 22 33.84 -18 23 02.9   699 – Lowell Observatory-LONEOS MPS 179632
2006 09 17.41357 00 22 32.89 -18 23 07.9   699 – Lowell Observatory-LONEOS MPS 179632
2006 09 20.29712 00 20 03.33 -18 37 38.8 19.9 V 703 – Catalina Sky Survey MPS 179632
2006 09 20.30420 00 20 02.97 -18 37 40.4 19.0 V 703 – Catalina Sky Survey MPS 179632
2006 09 20.31122 00 20 02.50 -18 37 43.4 19.2 V 703 – Catalina Sky Survey MPS 179632
2006 09 20.31830 00 20 02.22 -18 37 45.4 18.9 V 703 – Catalina Sky Survey MPS 179632
2008 01 11.39548 10 45 25.95 +24 32 17.9 20.8 V 703 – Catalina Sky Survey MPS 327450
2008 01 11.40204 10 45 25.88 +24 32 20.9 20.6 V 703 – Catalina Sky Survey MPS 327450
2008 01 11.41039 10 45 25.92 +24 32 23.9 20.1 V 703 – Catalina Sky Survey MPS 327450
2008 01 11.41692 10 45 25.77 +24 32 27.9 20.4 V 703 – Catalina Sky Survey MPS 327450
2008 01 12.33850 10 45 15.76 +24 39 45.4 20.0   704 – Lincoln Laboratory ETS, New Mexico MPS 327450
2008 01 12.35131 10 45 15.57 +24 39 51.0 20.0   704 – Lincoln Laboratory ETS, New Mexico MPS 327450
2008 01 12.36410 10 45 15.40 +24 39 56.2 19.9   704 – Lincoln Laboratory ETS, New Mexico MPS 327450
2008 01 12.37691 10 45 15.22 +24 40 03.3 20.6   704 – Lincoln Laboratory ETS, New Mexico MPS 327450
2008 01 20.39800 10 42 40.32 +25 46 50.1 20.0 V G96 – Mt. Lemmon Survey MPS 327450
2008 01 20.40246 10 42 40.17 +25 46 52.3 19.7 V G96 – Mt. Lemmon Survey MPS 327450
2008 01 20.40697 10 42 40.06 +25 46 54.8 19.8 V G96 – Mt. Lemmon Survey MPS 327450
2008 01 20.41142 10 42 39.96 +25 46 57.0 19.7 V G96 – Mt. Lemmon Survey MPS 327450
2008 02 08.28123 10 29 44.98 +28 25 34.4 19.8   704 – Lincoln Laboratory ETS, New Mexico MPS 327450
2008 02 08.29331 10 29 44.29 +28 25 40.8 20.2   704 – Lincoln Laboratory ETS, New Mexico MPS 327450
2008 02 08.30367 10 29 43.65 +28 25 45.4 19.8 V 703 – Catalina Sky Survey MPS 327450
2008 02 08.30541 10 29 43.62 +28 25 46.6 20.1   704 – Lincoln Laboratory ETS, New Mexico MPS 327450
2008 02 08.31039 10 29 43.33 +28 25 48.3 20.2 V 703 – Catalina Sky Survey MPS 327450
2008 02 08.31711 10 29 42.90 +28 25 51.2 19.9 V 703 – Catalina Sky Survey MPS 327450
2008 02 08.31756 10 29 42.99 +28 25 51.8 20.1   704 – Lincoln Laboratory ETS, New Mexico MPS 327450
2008 02 08.32381 10 29 42.50 +28 25 53.7 20.1 V 703 – Catalina Sky Survey MPS 327450
2008 02 08.33030 10 29 42.26 +28 25 58.3 20.1   704 – Lincoln Laboratory ETS, New Mexico MPS 327450
2008 02 28.33837 10 10 45.44 +30 18 50.1 19.5 V 703 – Catalina Sky Survey MPS 327450
2008 02 28.34560 10 10 45.04 +30 18 52.0 20.1 V 703 – Catalina Sky Survey MPS 327450
2008 02 28.35284 10 10 44.58 +30 18 53.0 20.4 V 703 – Catalina Sky Survey MPS 327450
2008 02 28.36006 10 10 44.25 +30 18 54.1 20.7 V 703 – Catalina Sky Survey MPS 327450
2009 04 19.34479 15 37 46.11 -11 45 01.3 21.1 V 691 – Steward Observatory, Kitt Peak-Spacewatch MPS 327450
2009 04 19.36247 15 37 45.34 -11 44 59.7 21.0 V 691 – Steward Observatory, Kitt Peak-Spacewatch MPS 327450
2009 04 19.38013 15 37 44.60 -11 44 58.8 20.9 V 691 – Steward Observatory, Kitt Peak-Spacewatch MPS 327450
2009 05 01.27561 15 28 16.32 -11 29 12.7 20.9 V 691 – Steward Observatory, Kitt Peak-Spacewatch MPS 327450
2009 05 01.29326 15 28 15.40 -11 29 11.5 20.5 V 691 – Steward Observatory, Kitt Peak-Spacewatch MPS 327450
2009 05 01.31091 15 28 14.48 -11 29 10.4 20.7 V 691 – Steward Observatory, Kitt Peak-Spacewatch MPS 327450
2009 05 17.25792 15 13 52.46 -11 12 41.4 20.2 V G96 – Mt. Lemmon Survey MPS 327450
2009 05 17.26559 15 13 52.03 -11 12 41.1 20.7 V G96 – Mt. Lemmon Survey MPS 327450
2009 05 17.27296 15 13 51.60 -11 12 40.8 20.3 V G96 – Mt. Lemmon Survey MPS 327450
2009 05 17.28069 15 13 51.16 -11 12 40.5 20.3 V G96 – Mt. Lemmon Survey MPS 327450
2011 11 03.96685 05 24 49.01 +20 17 50.9 19.2 R 114 – Engelhardt Observatory, Zelenchukskaya Station MPS 398292
2011 11 03.97078 05 24 48.93 +20 17 52.1 19.4 R 114 – Engelhardt Observatory, Zelenchukskaya Station MPS 398292
2011 11 03.97469 05 24 48.84 +20 17 53.3 19.0 R 114 – Engelhardt Observatory, Zelenchukskaya Station MPS 398292
2011 11 16.43483 05 18 16.92 +21 23 12.4 18.4 V G96 – Mt. Lemmon Survey MPS 400074
2011 11 16.45316 05 18 16.05 +21 23 18.3 18.4 V G96 – Mt. Lemmon Survey MPS 400074
2011 11 16.46236 05 18 15.66 +21 23 21.2 18.6 V G96 – Mt. Lemmon Survey MPS 400074
2011 11 17.45964 05 17 31.33 +21 28 49.4 19.6   704 – Lincoln Laboratory ETS, New Mexico MPS 400074
2011 11 17.47219 05 17 30.74 +21 28 52.6 19.6   704 – Lincoln Laboratory ETS, New Mexico MPS 400074
2011 11 17.48484 05 17 30.16 +21 28 56.6 19.9   704 – Lincoln Laboratory ETS, New Mexico MPS 400074
2011 11 18.46221 05 16 45.02 +21 34 20.2 19.0   704 – Lincoln Laboratory ETS, New Mexico MPS 401137
